Location: Home
(42.5358°N, 72.7383°W)
Time: 07:08:34
(UTC-04:00)

COSMOS 2251 DEB - Pass Details

Date: 26 June 2022
Orbit: 769 x 1233 km, 74.1° (Epoch: 15 August)

Event Time Altitude Azimuth Distance (km) Brightness Sun altitude
Exits shadow 04:17:35 10° 240° (WSW) 2,514 ? -9.1°
Maximum altitude 04:22:42 32° 303° (WNW) 1,573 ? -8.4°
Drops below altitude 10° 04:28:27 10° 4° (N) 2,829 ? -7.6°
Sets 04:31:31 0° 15° (NNE) 3,865 ? -7.2°
